START_TIME,STEP,MOV.,M35,t_acc.,PL05,t_acc.,PL06,t_acc.,PL07,t_acc.
1989-08-26T06:00:24.590 ,4,0,0.,4.8,0.,4.8,0.,4.8,0.,4.8
1989-08-26T06:00:29.390 ,4,0,0.,4.8,0.,4.8,0.,4.8,0.,4.8
1989-08-26T06:00:34.190 ,4,0,0.,4.8,0.,4.8,0.,4.8,0.,4.8
1989-08-26T06:00:38.990 ,4,0,0.,4.8,0.,4.8,0.,4.8,0.,4.8
1989-08-26T06:00:43.790 ,4,0,0.,4.8,0.,4.8,0.,4.8,0.,4.8
1989-08-26T06:00:48.590 ,3,0,0.,4.8,0.,4.8,0.,4.8,0.,4.8
1989-08-26T06:00:53.390 ,3,0,0.,4.8,0.,4.8,0.,4.8,0.,4.8
1989-08-26T06:00:58.190 ,3,0,0.,4.8,0.,4.8,0.,4.8,0.,4.8
1989-08-26T06:01:02.990 ,3,0,0.,4.8,0.,4.8,0.,4.8,0.,4.8
1989-08-26T06:01:07.790 ,3,0,0.,4.8,0.,4.8,0.,4.8,0.,4.8
1989-08-26T06:01:12.590 ,3,0,0.,4.8,1.,4.8,0.,4.8,0.,4.8
1989-08-26T06:01:17.390 ,3,0,0.,4.8,0.,4.8,0.,4.8,0.,4.8
1989-08-26T06:01:22.190 ,3,0,0.,4.8,0.,4.8,0.,4.8,0.,4.8
1989-08-26T06:01:26.990 ,3,0,0.,4.8,0.,4.8,0.,4.8,0.,4.8
1989-08-26T06:01:31.790 ,3,0,0.,4.8,1.,4.8,0.,4.8,0.,4.8
1989-08-26T06:01:36.590 ,2,0,0.,4.8,0.,4.8,0.,4.8,0.,4.8
1989-08-26T06:01:41.390 ,2,0,0.,4.8,0.,4.8,0.,4.8,0.,4.8
1989-08-26T06:01:46.190 ,2,0,0.,4.8,0.,4.8,0.,4.8,0.,4.8
1989-08-26T06:01:50.990 ,2,0,0.,4.8,1.,4.8,0.,4.8,0.,4.8
1989-08-26T06:01:55.790 ,2,0,0.,4.8,0.,4.8,0.,4.8,0.,4.8
1989-08-26T06:02:00.590 ,2,0,0.,4.8,1.,4.8,0.,4.8,0.,4.8
1989-08-26T06:02:05.390 ,2,0,0.,4.8,0.,4.8,0.,4.8,0.,4.8
1989-08-26T06:02:10.190 ,2,0,0.,4.8,2.,4.8,0.,4.8,0.,4.8
1989-08-26T06:02:14.990 ,2,0,0.,4.8,1.,4.8,0.,4.8,0.,4.8
1989-08-26T06:02:19.790 ,2,0,0.,4.8,0.,4.8,0.,4.8,0.,4.8
1989-08-26T06:02:24.590 ,1,0,0.,4.8,0.,4.8,0.,4.8,0.,4.8
1989-08-26T06:02:29.390 ,1,0,0.,4.8,0.,4.8,0.,4.8,0.,4.8
1989-08-26T06:02:34.190 ,1,0,0.,4.8,0.,4.8,0.,4.8,0.,4.8
1989-08-26T06:02:38.990 ,1,0,0.,4.8,0.,4.8,0.,4.8,0.,4.8
1989-08-26T06:02:43.790 ,1,0,0.,4.8,0.,4.8,0.,4.8,1.,4.8
1989-08-26T06:02:48.590 ,1,0,0.,4.8,0.,4.8,0.,4.8,0.,4.8
1989-08-26T06:02:53.390 ,1,0,0.,4.8,1.,4.8,0.,4.8,0.,4.8
1989-08-26T06:02:58.190 ,1,0,0.,4.8,0.,4.8,0.,4.8,0.,4.8
1989-08-26T06:03:02.990 ,1,0,0.,4.8,1.,4.8,0.,4.8,0.,4.8
1989-08-26T06:03:07.790 ,1,0,0.,4.8,0.,4.8,0.,4.8,0.,4.8
1989-08-26T06:03:12.590 ,0,0,0.,4.8,0.,4.8,0.,4.8,0.,4.8
1989-08-26T06:03:17.390 ,0,0,0.,4.8,0.,4.8,0.,4.8,0.,4.8
1989-08-26T06:03:22.190 ,0,0,0.,4.8,3.,4.8,0.,4.8,0.,4.8
1989-08-26T06:03:26.990 ,0,0,0.,4.8,0.,4.8,0.,4.8,0.,4.8
1989-08-26T06:03:31.790 ,0,0,0.,4.8,0.,4.8,0.,4.8,0.,4.8
1989-08-26T06:03:36.590 ,0,0,0.,4.8,0.,4.8,0.,4.8,0.,4.8
1989-08-26T06:03:41.390 ,0,0,0.,4.8,0.,4.8,0.,4.8,0.,4.8
1989-08-26T06:03:46.190 ,0,0,0.,4.8,2.,4.8,0.,4.8,1.,4.8
1989-08-26T06:03:50.990 ,0,0,0.,4.8,1.,4.8,0.,4.8,0.,4.8
1989-08-26T06:03:55.790 ,0,0,0.,4.8,0.,4.8,0.,4.8,0.,4.8
1989-08-26T06:04:00.590 ,0,0,0.,4.8,0.,4.8,0.,4.8,1.,4.8
1989-08-26T06:04:05.390 ,0,0,0.,4.8,3.,4.8,0.,4.8,0.,4.8
1989-08-26T06:04:10.190 ,0,0,0.,4.8,0.,4.8,0.,4.8,0.,4.8
1989-08-26T06:04:14.990 ,0,0,0.,4.8,0.,4.8,0.,4.8,0.,4.8
1989-08-26T06:04:19.790 ,0,0,0.,4.8,0.,4.8,0.,4.8,0.,4.8
1989-08-26T06:04:24.590 ,0,0,0.,4.8,1.,4.8,0.,4.8,0.,4.8
1989-08-26T06:04:29.390 ,0,0,0.,4.8,1.,4.8,0.,4.8,0.,4.8
1989-08-26T06:04:34.190 ,0,0,0.,4.8,1.,4.8,0.,4.8,0.,4.8
1989-08-26T06:04:38.990 ,0,0,0.,4.8,0.,4.8,0.,4.8,0.,4.8
1989-08-26T06:04:43.790 ,0,0,0.,4.8,1.,4.8,0.,4.8,0.,4.8
1989-08-26T06:04:48.590 ,1,0,0.,4.8,1.,4.8,0.,4.8,0.,4.8
1989-08-26T06:04:53.390 ,1,0,0.,4.8,0.,4.8,1.,4.8,0.,4.8
1989-08-26T06:04:58.190 ,1,0,0.,4.8,0.,4.8,0.,4.8,0.,4.8
1989-08-26T06:05:02.990 ,1,0,0.,4.8,2.,4.8,0.,4.8,0.,4.8
1989-08-26T06:05:07.790 ,1,0,0.,4.8,0.,4.8,0.,4.8,0.,4.8
1989-08-26T06:05:12.590 ,1,0,0.,4.8,1.,4.8,0.,4.8,0.,4.8
1989-08-26T06:05:17.390 ,1,0,0.,4.8,0.,4.8,0.,4.8,0.,4.8
1989-08-26T06:05:22.190 ,1,0,0.,4.8,2.,4.8,0.,4.8,0.,4.8
1989-08-26T06:05:26.990 ,1,0,0.,4.8,2.,4.8,0.,4.8,0.,4.8
1989-08-26T06:05:31.790 ,1,0,0.,4.8,2.,4.8,0.,4.8,0.,4.8
1989-08-26T06:05:36.590 ,2,0,0.,4.8,0.,4.8,0.,4.8,0.,4.8
1989-08-26T06:05:41.390 ,2,0,0.,4.8,0.,4.8,0.,4.8,0.,4.8
1989-08-26T06:05:46.190 ,2,0,0.,4.8,0.,4.8,0.,4.8,0.,4.8
1989-08-26T06:05:50.990 ,2,0,0.,4.8,0.,4.8,0.,4.8,0.,4.8
1989-08-26T06:05:55.790 ,2,0,0.,4.8,0.,4.8,0.,4.8,0.,4.8
1989-08-26T06:06:00.590 ,2,0,0.,4.8,0.,4.8,1.,4.8,0.,4.8
1989-08-26T06:06:05.390 ,2,0,0.,4.8,1.,4.8,0.,4.8,0.,4.8
1989-08-26T06:06:10.190 ,2,0,0.,4.8,0.,4.8,0.,4.8,1.,4.8
1989-08-26T06:06:14.990 ,2,0,0.,4.8,1.,4.8,0.,4.8,0.,4.8
1989-08-26T06:06:19.790 ,2,0,0.,4.8,0.,4.8,0.,4.8,0.,4.8
1989-08-26T06:06:24.590 ,3,0,0.,4.8,0.,4.8,0.,4.8,0.,4.8
1989-08-26T06:06:29.390 ,3,0,0.,4.8,0.,4.8,0.,4.8,0.,4.8
1989-08-26T06:06:34.190 ,3,0,0.,4.8,0.,4.8,0.,4.8,0.,4.8
1989-08-26T06:06:38.990 ,3,0,0.,4.8,0.,4.8,0.,4.8,0.,4.8
1989-08-26T06:06:43.790 ,3,0,0.,4.8,2.,4.8,0.,4.8,0.,4.8
1989-08-26T06:06:48.590 ,3,0,0.,4.8,0.,4.8,0.,4.8,0.,4.8
1989-08-26T06:06:53.390 ,3,0,0.,4.8,0.,4.8,0.,4.8,0.,4.8
1989-08-26T06:06:58.190 ,3,0,0.,4.8,1.,4.8,0.,4.8,0.,4.8
1989-08-26T06:07:02.990 ,3,0,0.,4.8,0.,4.8,0.,4.8,1.,4.8
1989-08-26T06:07:07.790 ,3,0,0.,4.8,0.,4.8,0.,4.8,0.,4.8
1989-08-26T06:07:12.590 ,4,0,0.,4.8,1.,4.8,0.,4.8,0.,4.8
1989-08-26T06:07:17.390 ,4,0,0.,4.8,1.,4.8,0.,4.8,0.,4.8
1989-08-26T06:07:22.190 ,4,0,0.,4.8,0.,4.8,0.,4.8,0.,4.8
1989-08-26T06:07:26.990 ,4,0,0.,4.8,1.,4.8,0.,4.8,0.,4.8
1989-08-26T06:07:31.790 ,4,0,0.,4.8,0.,4.8,0.,4.8,0.,4.8
1989-08-26T06:07:36.590 ,4,0,0.,4.8,1.,4.8,0.,4.8,1.,4.8
1989-08-26T06:07:41.390 ,4,0,0.,4.8,0.,4.8,0.,4.8,0.,4.8
1989-08-26T06:07:46.190 ,4,0,0.,4.8,0.,4.8,0.,4.8,0.,4.8
1989-08-26T06:07:50.990 ,4,0,0.,4.8,2.,4.8,0.,4.8,0.,4.8
1989-08-26T06:07:55.790 ,4,0,0.,4.8,0.,4.8,0.,4.8,0.,4.8
1989-08-26T06:08:00.590 ,5,0,0.,4.8,2.,4.8,0.,4.8,0.,4.8
1989-08-26T06:08:05.390 ,5,0,0.,4.8,0.,4.8,0.,4.8,0.,4.8
1989-08-26T06:08:10.190 ,5,0,0.,4.8,0.,4.8,0.,4.8,0.,4.8
1989-08-26T06:08:14.990 ,5,0,0.,4.8,0.,4.8,0.,4.8,0.,4.8
1989-08-26T06:08:19.790 ,5,0,0.,4.8,1.,4.8,0.,4.8,0.,4.8
1989-08-26T06:08:24.590 ,5,0,0.,4.8,1.,4.8,0.,4.8,0.,4.8
1989-08-26T06:08:29.390 ,5,0,0.,4.8,1.,4.8,0.,4.8,0.,4.8
1989-08-26T06:08:34.190 ,5,0,0.,4.8,1.,4.8,0.,4.8,0.,4.8
1989-08-26T06:08:38.990 ,5,0,0.,4.8,0.,4.8,1.,4.8,0.,4.8
1989-08-26T06:08:43.790 ,5,0,0.,4.8,0.,4.8,0.,4.8,0.,4.8
1989-08-26T06:08:48.590 ,6,0,0.,4.8,0.,4.8,0.,4.8,0.,4.8
1989-08-26T06:08:53.390 ,6,0,0.,4.8,1.,4.8,0.,4.8,0.,4.8
1989-08-26T06:08:58.190 ,6,0,0.,4.8,0.,4.8,0.,4.8,0.,4.8
1989-08-26T06:09:02.990 ,6,0,0.,4.8,0.,4.8,0.,4.8,0.,4.8
1989-08-26T06:09:07.790 ,6,0,0.,4.8,2.,4.8,0.,4.8,0.,4.8
1989-08-26T06:09:12.590 ,6,0,0.,4.8,0.,4.8,0.,4.8,0.,4.8
1989-08-26T06:09:17.390 ,6,0,0.,4.8,0.,4.8,0.,4.8,0.,4.8
1989-08-26T06:09:22.190 ,6,0,0.,4.8,0.,4.8,0.,4.8,0.,4.8
1989-08-26T06:09:26.990 ,6,0,0.,4.8,2.,4.8,1.,4.8,0.,4.8
1989-08-26T06:09:31.790 ,6,0,0.,4.8,2.,4.8,1.,4.8,0.,4.8
1989-08-26T06:09:36.590 ,7,0,0.,4.8,0.,4.8,1.,4.8,0.,4.8
1989-08-26T06:09:41.390 ,7,0,0.,4.8,0.,4.8,0.,4.8,0.,4.8
1989-08-26T06:09:46.190 ,7,0,0.,4.8,2.,4.8,0.,4.8,0.,4.8
1989-08-26T06:09:50.990 ,7,0,0.,4.8,1.,4.8,0.,4.8,1.,4.8
1989-08-26T06:09:55.790 ,7,0,0.,4.8,0.,4.8,0.,4.8,0.,4.8
1989-08-26T06:10:00.590 ,7,0,0.,4.8,1.,4.8,1.,4.8,0.,4.8
1989-08-26T06:10:05.390 ,7,0,0.,4.8,2.,4.8,0.,4.8,1.,4.8
1989-08-26T06:10:10.190 ,7,0,0.,4.8,0.,4.8,1.,4.8,0.,4.8
1989-08-26T06:10:14.990 ,7,0,0.,4.8,0.,4.8,0.,4.8,0.,4.8
1989-08-26T06:10:19.790 ,7,0,0.,4.8,1.,4.8,1.,4.8,0.,4.8
1989-08-26T06:10:24.590 ,7,0,0.,4.8,2.,4.8,0.,4.8,0.,4.8
1989-08-26T06:10:29.390 ,7,0,0.,4.8,0.,4.8,0.,4.8,0.,4.8
1989-08-26T06:10:34.190 ,7,0,0.,4.8,3.,4.8,0.,4.8,0.,4.8
1989-08-26T06:10:38.990 ,7,0,0.,4.8,0.,4.8,0.,4.8,0.,4.8
1989-08-26T06:10:43.790 ,7,0,0.,4.8,0.,4.8,0.,4.8,0.,4.8
1989-08-26T06:10:48.590 ,7,0,0.,4.8,0.,4.8,0.,4.8,0.,4.8
1989-08-26T06:10:53.390 ,7,0,0.,4.8,0.,4.8,0.,4.8,0.,4.8
1989-08-26T06:10:58.190 ,7,0,0.,4.8,0.,4.8,0.,4.8,0.,4.8
1989-08-26T06:11:02.990 ,7,0,0.,4.8,0.,4.8,0.,4.8,0.,4.8
1989-08-26T06:11:07.790 ,7,0,0.,4.8,0.,4.8,0.,4.8,0.,4.8
1989-08-26T06:11:12.590 ,6,0,0.,4.8,0.,4.8,1.,4.8,0.,4.8
1989-08-26T06:11:17.390 ,6,0,0.,4.8,0.,4.8,0.,4.8,1.,4.8
1989-08-26T06:11:22.190 ,6,0,0.,4.8,1.,4.8,0.,4.8,0.,4.8
1989-08-26T06:11:26.990 ,6,0,0.,4.8,0.,4.8,0.,4.8,0.,4.8
1989-08-26T06:11:31.790 ,6,0,0.,4.8,1.,4.8,0.,4.8,0.,4.8
1989-08-26T06:11:36.590 ,6,0,0.,4.8,1.,4.8,0.,4.8,0.,4.8
1989-08-26T06:11:41.390 ,6,0,0.,4.8,1.,4.8,0.,4.8,0.,4.8
1989-08-26T06:11:46.190 ,6,0,0.,4.8,0.,4.8,0.,4.8,0.,4.8
1989-08-26T06:11:50.990 ,6,0,0.,4.8,0.,4.8,0.,4.8,0.,4.8
1989-08-26T06:11:55.790 ,6,0,0.,4.8,0.,4.8,0.,4.8,0.,4.8
1989-08-26T06:12:00.590 ,5,0,0.,4.8,1.,4.8,0.,4.8,0.,4.8
1989-08-26T06:12:05.390 ,5,0,0.,4.8,0.,4.8,0.,4.8,1.,4.8
1989-08-26T06:12:10.190 ,5,0,0.,4.8,1.,4.8,0.,4.8,0.,4.8
1989-08-26T06:12:14.990 ,5,0,0.,4.8,0.,4.8,0.,4.8,1.,4.8
1989-08-26T06:12:19.790 ,5,0,0.,4.8,0.,4.8,0.,4.8,0.,4.8
1989-08-26T06:12:24.590 ,5,0,0.,4.8,0.,4.8,0.,4.8,0.,4.8
1989-08-26T06:12:29.390 ,5,0,0.,4.8,0.,4.8,0.,4.8,0.,4.8
1989-08-26T06:12:34.190 ,5,0,0.,4.8,1.,4.8,0.,4.8,0.,4.8
1989-08-26T06:12:38.990 ,5,0,0.,4.8,2.,4.8,0.,4.8,0.,4.8
1989-08-26T06:12:43.790 ,5,0,0.,4.8,1.,4.8,0.,4.8,0.,4.8
1989-08-26T06:12:48.590 ,4,0,0.,4.8,0.,4.8,0.,4.8,0.,4.8
1989-08-26T06:12:53.390 ,4,0,0.,4.8,0.,4.8,0.,4.8,1.,4.8
1989-08-26T06:12:58.190 ,4,0,0.,4.8,1.,4.8,0.,4.8,0.,4.8
1989-08-26T06:13:02.990 ,4,0,0.,4.8,0.,4.8,0.,4.8,0.,4.8
1989-08-26T06:13:07.790 ,4,0,0.,4.8,0.,4.8,0.,4.8,0.,4.8
1989-08-26T06:13:12.590 ,4,0,0.,4.8,0.,4.8,0.,4.8,0.,4.8
1989-08-26T06:13:17.390 ,4,0,0.,4.8,2.,4.8,0.,4.8,0.,4.8
1989-08-26T06:13:22.190 ,4,0,0.,4.8,1.,4.8,1.,4.8,0.,4.8
1989-08-26T06:13:26.990 ,4,0,0.,4.8,0.,4.8,0.,4.8,0.,4.8
1989-08-26T06:13:31.790 ,4,0,0.,4.8,1.,4.8,0.,4.8,0.,4.8
1989-08-26T06:13:36.590 ,3,0,0.,4.8,0.,4.8,0.,4.8,0.,4.8
1989-08-26T06:13:41.390 ,3,0,0.,4.8,1.,4.8,0.,4.8,0.,4.8
1989-08-26T06:13:46.190 ,3,0,0.,4.8,0.,4.8,0.,4.8,0.,4.8
1989-08-26T06:13:50.990 ,3,0,0.,4.8,1.,4.8,0.,4.8,0.,4.8
1989-08-26T06:13:55.790 ,3,0,0.,4.8,0.,4.8,0.,4.8,0.,4.8
1989-08-26T06:14:00.590 ,3,0,0.,4.8,0.,4.8,1.,4.8,1.,4.8
1989-08-26T06:14:05.390 ,3,0,0.,4.8,0.,4.8,0.,4.8,0.,4.8
1989-08-26T06:14:10.190 ,3,0,0.,4.8,0.,4.8,0.,4.8,0.,4.8
1989-08-26T06:14:14.990 ,3,0,0.,4.8,0.,4.8,0.,4.8,0.,4.8
1989-08-26T06:14:19.790 ,3,0,0.,4.8,0.,4.8,0.,4.8,0.,4.8
1989-08-26T06:14:24.590 ,2,0,0.,4.8,0.,4.8,1.,4.8,0.,4.8
1989-08-26T06:14:29.390 ,2,0,0.,4.8,0.,4.8,0.,4.8,1.,4.8
1989-08-26T06:14:34.190 ,2,0,0.,4.8,2.,4.8,0.,4.8,0.,4.8
1989-08-26T06:14:38.990 ,2,0,0.,4.8,0.,4.8,0.,4.8,0.,4.8
1989-08-26T06:14:43.790 ,2,0,0.,4.8,2.,4.8,0.,4.8,1.,4.8
1989-08-26T06:14:48.590 ,2,0,0.,4.8,0.,4.8,0.,4.8,1.,4.8
1989-08-26T06:14:53.390 ,2,0,0.,4.8,0.,4.8,0.,4.8,0.,4.8
1989-08-26T06:14:58.190 ,2,0,0.,4.8,1.,4.8,0.,4.8,0.,4.8
1989-08-26T06:15:02.990 ,2,0,0.,4.8,0.,4.8,0.,4.8,0.,4.8
1989-08-26T06:15:07.790 ,2,0,0.,4.8,0.,4.8,0.,4.8,0.,4.8
1989-08-26T06:15:12.590 ,1,0,0.,4.8,1.,4.8,0.,4.8,0.,4.8
1989-08-26T06:15:17.390 ,1,0,0.,4.8,0.,4.8,0.,4.8,0.,4.8
1989-08-26T06:15:22.190 ,1,0,0.,4.8,1.,4.8,0.,4.8,0.,4.8
1989-08-26T06:15:26.990 ,1,0,0.,4.8,0.,4.8,0.,4.8,0.,4.8
1989-08-26T06:15:31.790 ,1,0,0.,4.8,0.,4.8,1.,4.8,0.,4.8
1989-08-26T06:15:36.590 ,1,0,0.,4.8,0.,4.8,0.,4.8,0.,4.8
1989-08-26T06:15:41.390 ,1,0,0.,4.8,1.,4.8,0.,4.8,0.,4.8
1989-08-26T06:15:46.190 ,1,0,0.,4.8,0.,4.8,0.,4.8,0.,4.8
1989-08-26T06:15:50.990 ,1,0,0.,4.8,0.,4.8,0.,4.8,0.,4.8
1989-08-26T06:15:55.790 ,1,0,0.,4.8,2.,4.8,0.,4.8,0.,4.8
1989-08-26T06:16:00.590 ,0,0,0.,4.8,0.,4.8,1.,4.8,0.,4.8
1989-08-26T06:16:05.390 ,0,0,0.,4.8,1.,4.8,1.,4.8,0.,4.8
1989-08-26T06:16:10.190 ,0,0,0.,4.8,0.,4.8,0.,4.8,0.,4.8
1989-08-26T06:16:14.990 ,0,0,0.,4.8,1.,4.8,1.,4.8,0.,4.8
1989-08-26T06:16:19.790 ,0,0,0.,4.8,1.,4.8,0.,4.8,0.,4.8
1989-08-26T06:16:24.590 ,0,0,0.,4.8,1.,4.8,0.,4.8,0.,4.8
1989-08-26T06:16:29.390 ,0,0,0.,4.8,2.,4.8,0.,4.8,0.,4.8
1989-08-26T06:16:34.190 ,0,0,0.,4.8,1.,4.8,0.,4.8,0.,4.8
1989-08-26T06:16:38.990 ,0,0,0.,4.8,1.,4.8,0.,4.8,0.,4.8
1989-08-26T06:16:43.790 ,0,0,0.,4.8,0.,4.8,0.,4.8,0.,4.8
1989-08-26T06:16:48.590 ,0,0,0.,4.8,1.,4.8,0.,4.8,0.,4.8
1989-08-26T06:16:53.390 ,0,0,0.,4.8,1.,4.8,0.,4.8,1.,4.8
1989-08-26T06:16:58.190 ,0,0,0.,4.8,0.,4.8,0.,4.8,0.,4.8
1989-08-26T06:17:02.990 ,0,0,0.,4.8,0.,4.8,0.,4.8,1.,4.8
1989-08-26T06:17:07.790 ,0,0,0.,4.8,1.,4.8,0.,4.8,0.,4.8
1989-08-26T06:17:12.590 ,0,0,0.,4.8,0.,4.8,0.,4.8,0.,4.8
1989-08-26T06:17:17.390 ,0,0,0.,4.8,0.,4.8,0.,4.8,0.,4.8
1989-08-26T06:17:22.190 ,0,0,0.,4.8,0.,4.8,0.,4.8,0.,4.8
1989-08-26T06:17:26.990 ,0,0,0.,4.8,0.,4.8,0.,4.8,0.,4.8
1989-08-26T06:17:31.790 ,0,0,0.,4.8,0.,4.8,0.,4.8,0.,4.8
1989-08-26T06:17:36.590 ,1,0,0.,4.8,0.,4.8,0.,4.8,0.,4.8
1989-08-26T06:17:41.390 ,1,0,0.,4.8,1.,4.8,0.,4.8,0.,4.8
1989-08-26T06:17:46.190 ,1,0,0.,4.8,0.,4.8,0.,4.8,0.,4.8
1989-08-26T06:17:50.990 ,1,0,0.,4.8,1.,4.8,0.,4.8,0.,4.8
1989-08-26T06:17:55.790 ,1,0,0.,4.8,2.,4.8,0.,4.8,1.,4.8
1989-08-26T06:18:00.590 ,1,0,0.,4.8,0.,4.8,0.,4.8,0.,4.8
1989-08-26T06:18:05.390 ,1,0,0.,4.8,0.,4.8,0.,4.8,0.,4.8
1989-08-26T06:18:10.190 ,1,0,0.,4.8,1.,4.8,0.,4.8,0.,4.8
1989-08-26T06:18:14.990 ,1,0,0.,4.8,1.,4.8,0.,4.8,0.,4.8
1989-08-26T06:18:19.790 ,1,0,0.,4.8,0.,4.8,0.,4.8,0.,4.8
1989-08-26T06:18:24.590 ,2,0,0.,4.8,0.,4.8,0.,4.8,0.,4.8
1989-08-26T06:18:29.390 ,2,0,0.,4.8,0.,4.8,1.,4.8,0.,4.8
1989-08-26T06:18:34.190 ,2,0,0.,4.8,0.,4.8,0.,4.8,0.,4.8
1989-08-26T06:18:38.990 ,2,0,0.,4.8,1.,4.8,0.,4.8,0.,4.8
1989-08-26T06:18:43.790 ,2,0,0.,4.8,0.,4.8,0.,4.8,0.,4.8
1989-08-26T06:18:48.590 ,2,0,0.,4.8,0.,4.8,0.,4.8,0.,4.8
1989-08-26T06:18:53.390 ,2,0,0.,4.8,1.,4.8,0.,4.8,0.,4.8
1989-08-26T06:18:58.190 ,2,0,0.,4.8,0.,4.8,0.,4.8,0.,4.8
1989-08-26T06:19:02.990 ,2,0,0.,4.8,0.,4.8,0.,4.8,0.,4.8
1989-08-26T06:19:07.790 ,2,0,0.,4.8,1.,4.8,0.,4.8,0.,4.8
1989-08-26T06:19:12.590 ,3,0,0.,4.8,0.,4.8,0.,4.8,0.,4.8
1989-08-26T06:19:17.390 ,3,0,0.,4.8,1.,4.8,0.,4.8,0.,4.8
1989-08-26T06:19:22.190 ,3,0,0.,4.8,0.,4.8,0.,4.8,0.,4.8
1989-08-26T06:19:26.990 ,3,0,0.,4.8,0.,4.8,0.,4.8,0.,4.8
1989-08-26T06:19:31.790 ,3,0,0.,4.8,1.,4.8,0.,4.8,0.,4.8
1989-08-26T06:19:36.590 ,3,0,0.,4.8,1.,4.8,0.,4.8,1.,4.8
1989-08-26T06:19:41.390 ,3,0,0.,4.8,1.,4.8,0.,4.8,0.,4.8
1989-08-26T06:19:46.190 ,3,0,0.,4.8,0.,4.8,0.,4.8,0.,4.8
1989-08-26T06:19:50.990 ,3,0,0.,4.8,2.,4.8,0.,4.8,0.,4.8
1989-08-26T06:19:55.790 ,3,0,0.,4.8,0.,4.8,0.,4.8,0.,4.8
1989-08-26T06:20:00.590 ,4,0,0.,4.8,0.,4.8,0.,4.8,0.,4.8
1989-08-26T06:20:05.390 ,4,0,0.,4.8,0.,4.8,0.,4.8,0.,4.8
1989-08-26T06:20:10.190 ,4,0,0.,4.8,1.,4.8,0.,4.8,0.,4.8
1989-08-26T06:20:14.990 ,4,0,0.,4.8,0.,4.8,0.,4.8,0.,4.8
1989-08-26T06:20:19.790 ,4,0,0.,4.8,0.,4.8,0.,4.8,0.,4.8
1989-08-26T06:20:24.590 ,4,0,0.,4.8,0.,4.8,0.,4.8,0.,4.8
1989-08-26T06:20:29.390 ,4,0,0.,4.8,0.,4.8,0.,4.8,0.,4.8
1989-08-26T06:20:34.190 ,4,0,0.,4.8,1.,4.8,0.,4.8,0.,4.8
1989-08-26T06:20:38.990 ,4,0,0.,4.8,0.,4.8,0.,4.8,0.,4.8
1989-08-26T06:20:43.790 ,4,0,0.,4.8,1.,4.8,2.,4.8,0.,4.8
1989-08-26T06:20:48.590 ,5,0,0.,4.8,0.,4.8,0.,4.8,0.,4.8
1989-08-26T06:20:53.390 ,5,0,0.,4.8,0.,4.8,0.,4.8,0.,4.8
1989-08-26T06:20:58.190 ,5,0,0.,4.8,0.,4.8,1.,4.8,0.,4.8
1989-08-26T06:21:02.990 ,5,0,0.,4.8,0.,4.8,0.,4.8,0.,4.8
1989-08-26T06:21:07.790 ,5,0,0.,4.8,1.,4.8,0.,4.8,0.,4.8
1989-08-26T06:21:12.590 ,5,0,0.,4.8,1.,4.8,0.,4.8,0.,4.8
1989-08-26T06:21:17.390 ,5,0,0.,4.8,0.,4.8,0.,4.8,0.,4.8
1989-08-26T06:21:22.190 ,5,0,0.,4.8,0.,4.8,0.,4.8,0.,4.8
1989-08-26T06:21:26.990 ,5,0,0.,4.8,0.,4.8,0.,4.8,0.,4.8
1989-08-26T06:21:31.790 ,5,0,0.,4.8,0.,4.8,0.,4.8,0.,4.8
1989-08-26T06:21:36.590 ,6,0,0.,4.8,0.,4.8,0.,4.8,0.,4.8
1989-08-26T06:21:41.390 ,6,0,0.,4.8,0.,4.8,0.,4.8,0.,4.8
1989-08-26T06:21:46.190 ,6,0,0.,4.8,0.,4.8,0.,4.8,0.,4.8
1989-08-26T06:21:50.990 ,6,0,0.,4.8,1.,4.8,0.,4.8,0.,4.8
1989-08-26T06:21:55.790 ,6,0,0.,4.8,1.,4.8,0.,4.8,0.,4.8
1989-08-26T06:22:00.590 ,6,0,0.,4.8,1.,4.8,0.,4.8,0.,4.8
1989-08-26T06:22:05.390 ,6,0,0.,4.8,1.,4.8,0.,4.8,0.,4.8
1989-08-26T06:22:10.190 ,6,0,0.,4.8,0.,4.8,0.,4.8,0.,4.8
1989-08-26T06:22:14.990 ,6,0,0.,4.8,0.,4.8,0.,4.8,0.,4.8
1989-08-26T06:22:19.790 ,6,0,0.,4.8,1.,4.8,0.,4.8,0.,4.8
1989-08-26T06:22:24.590 ,7,0,0.,4.8,1.,4.8,0.,4.8,0.,4.8
1989-08-26T06:22:29.390 ,7,0,0.,4.8,0.,4.8,1.,4.8,0.,4.8
1989-08-26T06:22:34.190 ,7,0,0.,4.8,0.,4.8,0.,4.8,0.,4.8
1989-08-26T06:22:38.990 ,7,0,0.,4.8,0.,4.8,0.,4.8,0.,4.8
1989-08-26T06:22:43.790 ,7,0,0.,4.8,0.,4.8,0.,4.8,0.,4.8
1989-08-26T06:22:48.590 ,7,0,0.,4.8,1.,4.8,0.,4.8,0.,4.8
1989-08-26T06:22:53.390 ,7,0,0.,4.8,0.,4.8,0.,4.8,0.,4.8
1989-08-26T06:22:58.190 ,7,0,0.,4.8,0.,4.8,0.,4.8,0.,4.8
1989-08-26T06:23:02.990 ,7,0,0.,4.8,1.,4.8,0.,4.8,0.,4.8
1989-08-26T06:23:07.790 ,7,0,0.,4.8,1.,4.8,0.,4.8,1.,4.8
1989-08-26T06:23:12.590 ,7,0,0.,4.8,0.,4.8,0.,4.8,1.,4.8
1989-08-26T06:23:17.390 ,7,0,0.,4.8,0.,4.8,0.,4.8,0.,4.8
1989-08-26T06:23:22.190 ,7,0,0.,4.8,2.,4.8,0.,4.8,1.,4.8
1989-08-26T06:23:26.990 ,7,0,0.,4.8,2.,4.8,0.,4.8,0.,4.8
1989-08-26T06:23:31.790 ,7,0,0.,4.8,0.,4.8,0.,4.8,0.,4.8
1989-08-26T06:23:36.590 ,7,0,0.,4.8,0.,4.8,0.,4.8,0.,4.8
1989-08-26T06:23:41.390 ,7,0,0.,4.8,0.,4.8,1.,4.8,0.,4.8
1989-08-26T06:23:46.190 ,7,0,0.,4.8,0.,4.8,1.,4.8,0.,4.8
1989-08-26T06:23:50.990 ,7,0,0.,4.8,1.,4.8,0.,4.8,0.,4.8
1989-08-26T06:23:55.790 ,7,0,0.,4.8,2.,4.8,0.,4.8,0.,4.8
1989-08-26T06:24:00.590 ,6,0,0.,4.8,1.,4.8,1.,4.8,0.,4.8
1989-08-26T06:24:05.390 ,6,0,0.,4.8,0.,4.8,0.,4.8,0.,4.8
1989-08-26T06:24:10.190 ,6,0,0.,4.8,0.,4.8,0.,4.8,0.,4.8
1989-08-26T06:24:14.990 ,6,0,0.,4.8,0.,4.8,0.,4.8,0.,4.8
1989-08-26T06:24:19.790 ,6,0,0.,4.8,0.,4.8,0.,4.8,1.,4.8
1989-08-26T06:24:24.590 ,6,0,0.,4.8,1.,4.8,0.,4.8,0.,4.8
1989-08-26T06:24:29.390 ,6,0,0.,4.8,0.,4.8,0.,4.8,0.,4.8
1989-08-26T06:24:34.190 ,6,0,0.,4.8,0.,4.8,0.,4.8,0.,4.8
1989-08-26T06:24:38.990 ,6,0,0.,4.8,0.,4.8,0.,4.8,0.,4.8
1989-08-26T06:24:43.790 ,6,0,0.,4.8,1.,4.8,0.,4.8,0.,4.8
1989-08-26T06:24:48.590 ,5,0,0.,4.8,0.,4.8,0.,4.8,0.,4.8
1989-08-26T06:24:53.390 ,5,0,0.,4.8,1.,4.8,0.,4.8,0.,4.8
1989-08-26T06:24:58.190 ,5,0,0.,4.8,0.,4.8,0.,4.8,0.,4.8
1989-08-26T06:25:02.990 ,5,0,0.,4.8,0.,4.8,0.,4.8,0.,4.8
1989-08-26T06:25:07.790 ,5,0,0.,4.8,0.,4.8,0.,4.8,0.,4.8
1989-08-26T06:25:12.590 ,5,0,0.,4.8,1.,4.8,0.,4.8,0.,4.8
1989-08-26T06:25:17.390 ,5,0,0.,4.8,1.,4.8,0.,4.8,0.,4.8
1989-08-26T06:25:22.190 ,5,0,0.,4.8,1.,4.8,0.,4.8,0.,4.8
1989-08-26T06:25:26.990 ,5,0,0.,4.8,0.,4.8,0.,4.8,0.,4.8
1989-08-26T06:25:31.790 ,5,0,0.,4.8,0.,4.8,0.,4.8,0.,4.8
1989-08-26T06:25:36.590 ,4,0,0.,4.8,1.,4.8,0.,4.8,0.,4.8
1989-08-26T06:25:41.390 ,4,0,0.,4.8,0.,4.8,1.,4.8,0.,4.8
1989-08-26T06:25:46.190 ,4,0,0.,4.8,0.,4.8,0.,4.8,0.,4.8
1989-08-26T06:25:50.990 ,4,0,0.,4.8,1.,4.8,0.,4.8,0.,4.8
1989-08-26T06:25:55.790 ,4,0,0.,4.8,2.,4.8,0.,4.8,0.,4.8
1989-08-26T06:26:00.590 ,4,0,0.,4.8,1.,4.8,0.,4.8,0.,4.8
1989-08-26T06:26:05.390 ,4,0,0.,4.8,0.,4.8,0.,4.8,0.,4.8
1989-08-26T06:26:10.190 ,4,0,0.,4.8,0.,4.8,0.,4.8,0.,4.8
1989-08-26T06:26:14.990 ,4,0,0.,4.8,1.,4.8,0.,4.8,0.,4.8
1989-08-26T06:26:19.790 ,4,0,0.,4.8,1.,4.8,0.,4.8,0.,4.8
1989-08-26T06:26:24.590 ,3,0,0.,4.8,0.,4.8,0.,4.8,0.,4.8
1989-08-26T06:26:29.390 ,3,0,0.,4.8,0.,4.8,0.,4.8,0.,4.8
1989-08-26T06:26:34.190 ,3,0,0.,4.8,1.,4.8,0.,4.8,0.,4.8
1989-08-26T06:26:38.990 ,3,0,0.,4.8,1.,4.8,0.,4.8,0.,4.8
1989-08-26T06:26:43.790 ,3,0,0.,4.8,2.,4.8,0.,4.8,0.,4.8
1989-08-26T06:26:48.590 ,3,0,0.,4.8,1.,4.8,0.,4.8,0.,4.8
1989-08-26T06:26:53.390 ,3,0,0.,4.8,0.,4.8,0.,4.8,0.,4.8
1989-08-26T06:26:58.190 ,3,0,0.,4.8,0.,4.8,0.,4.8,0.,4.8
1989-08-26T06:27:02.990 ,3,0,0.,4.8,1.,4.8,1.,4.8,0.,4.8
1989-08-26T06:27:07.790 ,3,0,0.,4.8,0.,4.8,0.,4.8,0.,4.8
1989-08-26T06:27:12.590 ,2,0,0.,4.8,0.,4.8,0.,4.8,0.,4.8
1989-08-26T06:27:17.390 ,2,0,0.,4.8,1.,4.8,0.,4.8,0.,4.8
1989-08-26T06:27:22.190 ,2,0,0.,4.8,0.,4.8,0.,4.8,0.,4.8
1989-08-26T06:27:26.990 ,2,0,0.,4.8,2.,4.8,0.,4.8,0.,4.8
1989-08-26T06:27:31.790 ,2,0,0.,4.8,0.,4.8,0.,4.8,0.,4.8
1989-08-26T06:27:36.590 ,2,0,0.,4.8,1.,4.8,0.,4.8,0.,4.8
1989-08-26T06:27:41.390 ,2,0,0.,4.8,0.,4.8,0.,4.8,0.,4.8
1989-08-26T06:27:46.190 ,2,0,0.,4.8,1.,4.8,0.,4.8,0.,4.8
1989-08-26T06:27:50.990 ,2,0,0.,4.8,0.,4.8,0.,4.8,0.,4.8
1989-08-26T06:27:55.790 ,2,0,0.,4.8,0.,4.8,0.,4.8,0.,4.8
1989-08-26T06:28:00.590 ,1,0,0.,4.8,1.,4.8,0.,4.8,0.,4.8
1989-08-26T06:28:05.390 ,1,0,0.,4.8,2.,4.8,1.,4.8,0.,4.8
1989-08-26T06:28:10.190 ,1,0,0.,4.8,0.,4.8,0.,4.8,0.,4.8
1989-08-26T06:28:14.990 ,1,0,0.,4.8,0.,4.8,0.,4.8,0.,4.8
1989-08-26T06:28:19.790 ,1,0,0.,4.8,1.,4.8,0.,4.8,0.,4.8
1989-08-26T06:28:24.590 ,1,0,0.,4.8,0.,4.8,0.,4.8,0.,4.8
1989-08-26T06:28:29.390 ,1,0,0.,4.8,1.,4.8,0.,4.8,1.,4.8
1989-08-26T06:28:34.190 ,1,0,0.,4.8,0.,4.8,0.,4.8,0.,4.8
1989-08-26T06:28:38.990 ,1,0,0.,4.8,0.,4.8,0.,4.8,1.,4.8
1989-08-26T06:28:43.790 ,1,0,0.,4.8,1.,4.8,0.,4.8,0.,4.8
1989-08-26T06:28:48.590 ,0,0,0.,4.8,1.,4.8,0.,4.8,0.,4.8
1989-08-26T06:28:53.390 ,0,0,0.,4.8,1.,4.8,0.,4.8,0.,4.8
1989-08-26T06:28:58.190 ,0,0,0.,4.8,0.,4.8,0.,4.8,0.,4.8
1989-08-26T06:29:02.990 ,0,0,0.,4.8,2.,4.8,0.,4.8,0.,4.8
1989-08-26T06:29:07.790 ,0,0,0.,4.8,0.,4.8,0.,4.8,0.,4.8
1989-08-26T06:29:12.590 ,0,0,0.,4.8,0.,4.8,0.,4.8,0.,4.8
1989-08-26T06:29:17.390 ,0,0,0.,4.8,0.,4.8,1.,4.8,0.,4.8
1989-08-26T06:29:22.190 ,0,0,0.,4.8,0.,4.8,0.,4.8,0.,4.8
1989-08-26T06:29:26.990 ,0,0,0.,4.8,0.,4.8,0.,4.8,0.,4.8
1989-08-26T06:29:31.790 ,0,0,0.,4.8,0.,4.8,0.,4.8,0.,4.8
1989-08-26T06:29:36.590 ,0,0,0.,4.8,0.,4.8,1.,4.8,0.,4.8
1989-08-26T06:29:41.390 ,0,0,0.,4.8,2.,4.8,0.,4.8,0.,4.8
1989-08-26T06:29:46.190 ,0,0,0.,4.8,0.,4.8,0.,4.8,0.,4.8
1989-08-26T06:29:50.990 ,0,0,0.,4.8,0.,4.8,0.,4.8,0.,4.8
1989-08-26T06:29:55.790 ,0,0,0.,4.8,1.,4.8,0.,4.8,0.,4.8
1989-08-26T06:30:00.590 ,0,0,0.,4.8,1.,4.8,0.,4.8,0.,4.8
1989-08-26T06:30:05.390 ,0,0,0.,4.8,1.,4.8,0.,4.8,0.,4.8
1989-08-26T06:30:10.190 ,0,0,0.,4.8,0.,4.8,0.,4.8,0.,4.8
1989-08-26T06:30:14.990 ,0,0,0.,4.8,0.,4.8,0.,4.8,0.,4.8
1989-08-26T06:30:19.790 ,0,0,0.,4.8,2.,4.8,0.,4.8,0.,4.8
1989-08-26T06:30:24.590 ,1,0,0.,4.8,0.,4.8,0.,4.8,0.,4.8
1989-08-26T06:30:29.390 ,1,0,0.,4.8,0.,4.8,0.,4.8,0.,4.8
1989-08-26T06:30:34.190 ,1,0,0.,4.8,0.,4.8,0.,4.8,0.,4.8
1989-08-26T06:30:38.990 ,1,0,0.,4.8,0.,4.8,0.,4.8,0.,4.8
1989-08-26T06:30:43.790 ,1,0,0.,4.8,0.,4.8,1.,4.8,0.,4.8
1989-08-26T06:30:48.590 ,1,0,0.,4.8,0.,4.8,0.,4.8,0.,4.8
1989-08-26T06:30:53.390 ,1,0,0.,4.8,1.,4.8,0.,4.8,0.,4.8
1989-08-26T06:30:58.190 ,1,0,0.,4.8,2.,4.8,0.,4.8,0.,4.8
1989-08-26T06:31:02.990 ,1,0,0.,4.8,0.,4.8,1.,4.8,0.,4.8
1989-08-26T06:31:07.790 ,1,0,0.,4.8,0.,4.8,0.,4.8,0.,4.8
1989-08-26T06:31:12.590 ,2,0,0.,4.8,0.,4.8,0.,4.8,0.,4.8
1989-08-26T06:31:17.390 ,2,0,0.,4.8,0.,4.8,1.,4.8,0.,4.8
1989-08-26T06:31:22.190 ,2,0,0.,4.8,1.,4.8,0.,4.8,0.,4.8
1989-08-26T06:31:26.990 ,2,0,0.,4.8,0.,4.8,0.,4.8,1.,4.8
1989-08-26T06:31:31.790 ,2,0,0.,4.8,0.,4.8,0.,4.8,0.,4.8
1989-08-26T06:31:36.590 ,2,0,0.,4.8,1.,4.8,0.,4.8,0.,4.8
1989-08-26T06:31:41.390 ,2,0,0.,4.8,0.,4.8,0.,4.8,0.,4.8
1989-08-26T06:31:46.190 ,2,0,0.,4.8,0.,4.8,0.,4.8,0.,4.8
1989-08-26T06:31:50.990 ,2,0,0.,4.8,0.,4.8,0.,4.8,0.,4.8
1989-08-26T06:31:55.790 ,2,0,0.,4.8,1.,4.8,0.,4.8,0.,4.8
1989-08-26T06:32:00.590 ,3,0,0.,4.8,0.,4.8,0.,4.8,0.,4.8
1989-08-26T06:32:05.390 ,3,0,0.,4.8,1.,4.8,0.,4.8,0.,4.8
1989-08-26T06:32:10.190 ,3,0,0.,4.8,1.,4.8,0.,4.8,0.,4.8
1989-08-26T06:32:14.990 ,3,0,0.,4.8,1.,4.8,0.,4.8,0.,4.8
1989-08-26T06:32:19.790 ,3,0,0.,4.8,2.,4.8,0.,4.8,0.,4.8
1989-08-26T06:32:24.590 ,3,0,0.,4.8,0.,4.8,0.,4.8,0.,4.8
1989-08-26T06:32:29.390 ,3,0,0.,4.8,2.,4.8,1.,4.8,0.,4.8
1989-08-26T06:32:34.190 ,3,0,0.,4.8,0.,4.8,0.,4.8,0.,4.8
1989-08-26T06:32:38.990 ,3,0,0.,4.8,1.,4.8,0.,4.8,0.,4.8
1989-08-26T06:32:43.790 ,3,0,0.,4.8,0.,4.8,0.,4.8,0.,4.8
1989-08-26T06:32:48.590 ,4,0,0.,4.8,0.,4.8,0.,4.8,0.,4.8
1989-08-26T06:32:53.390 ,4,0,0.,4.8,1.,4.8,0.,4.8,0.,4.8
1989-08-26T06:32:58.190 ,4,0,0.,4.8,2.,4.8,2.,4.8,0.,4.8
1989-08-26T06:33:02.990 ,4,0,0.,4.8,1.,4.8,0.,4.8,0.,4.8
1989-08-26T06:33:07.790 ,4,0,0.,4.8,0.,4.8,0.,4.8,0.,4.8
1989-08-26T06:33:12.590 ,4,0,0.,4.8,0.,4.8,0.,4.8,0.,4.8
1989-08-26T06:33:17.390 ,4,0,0.,4.8,1.,4.8,0.,4.8,0.,4.8